Showing default

GOES 5, 12472

Orbit data source: Space-Track

GOES 5, 12472 is a payload satellite owned by NOAA (US) in GEO that was launched on Fri, 22 May 1981 UTC via a DELTA 3914 launch vehicle from the Air Force Eastern Test Range (AFETR). Payloads include a variety of satellites, spacecraft, and rockets equipped with specific instruments for various scientific and technological missions. These include communications satellites like Starlink; space stations such as the ISS; scientific satellites like the Hubble; Earth observation satellites from companies like Planet Labs, Umbra, and HawkEye 360; GPS; miniature CubeSats for education and research; and military/defense satellites.

Loading next visibility...
GOES 5 details
Identifier
12472, 1981-049A
Orbit
GEO
Last TLE update1 day ago
Origin
Flag of USNOAA (US)
ManufacturerHughes
MissionNon-operational Civil Weather
Bus & MotorHS-371, STAR 27 TE-
Mass836 kg wet, ~295 kg dry
Launch date (UTC)
1981-05-22 (44 years ago)
Launch vehicle
DELTA 3914
Launch site
Air Force Eastern Test Range (AFETR)
Object type
Payload
Rocket body
Debris
Shape & HBRCyl + 1 Ant, 4.4 m
Radar Cross Section7.914 m², Large (>1 m²)

Expand to show TLE details & history

TLE from 1 day ago
0 GOES 5
1 12472U 81049A   24360.43722247 -.00000104  00000-0  00000-0 0  9990
2 12472  10.3271 319.2904 0003976 295.6380 254.3899  1.00339863117448
Epoch: 2024-12-25T10:29Z
Definitive object data (Epoch: 2024-12-25T10:29:36.021Z)
Latitude-1.77873°
Longitude-102.73841°
Altitude35,771.866 km
Speed3.075 km/s
True Right ascension09h 56m 22s
True Declination-1° 46' 37"
Sunlit
Object was in daylight at TLE epoch
Visualization TLE readout
Latitude-5.20239°
Longitude-82.6318°
Altitude35,766.562 km
Speed3.075 km/s
Apparent Right ascension11h 18m 03s
Apparent Declination-12° 00' 39"
Sunlit
Object is in daylight
Visualization observer readout
Local Sidereal Time11:07:16
Azimuth176.651° S
Elevation38.013°
Doppler factor1
Orbital elements
Apogee altitude35,785.299 km
Perigee altitude35,751.784 km
Semi-major axis42,146.678 km
Eccentricity0.0003976
Inclination10.3271°
RAAN319.2904°
Arg. of periapsis295.638°
True anomaly254.34602°
Mean anomaly254.3899°
Eccentric anomaly254.36796°
Mean motion0.25084 °/min
BSTARUnknown
Orbital period1435.17 mins
Loading historical data...
12472 neighbors
Authenticating...
Loading maneuver chart data...
Loading historical data...
Loading historical data...
Loading historical data...
Loading historical data...
Loading historical data...
Loading historical data...
Loading historical data...
Other satellites on launch #49 in the year 1981 (1981-05-22 UTC)

GOES 5 Visibility forecast

Observer location: undefined°, undefined

Span
Click to sort rows by Start time (UTC) header in descending order
Start Az.
Max El. time (UTC)
Max El. Az.
Max El.
End time (UTC)
End Az.
1440 mins2024-12-26 11:45:51.905Z176.652° S2024-12-27 03:40:51.905Z174.01° S39.456°2024-12-27 11:45:51.905Z176.341° S
|